AAL2201 TNCM-KMIA

Flight info

Callsign AAL2201
Flight time 2h 40m
Altitude 36000
Route JUICE B520 STT RTE6 SJU DCT ACONY Y308 MADIZ VIICE2
Aircraft B738/M-SDE2E3FGHIRWXY/LB1

Departure

Time 2026-05-03 22:22
Airport Princess Juliana International Airport (TNCM)

Arrival

Time 2026-05-04 01:03
Airport Miami International Airport (KMIA)
Time Latitude Longitude Altitude Speed Heading
2026-05-03 21:41 18.04347 -63.11227 28 ft 0 kts 349°
2026-05-03 22:09 18.04330 -63.11224 28 ft 4 kts 11°
2026-05-03 22:10 18.04288 -63.11245 28 ft 4 kts 51°
2026-05-03 22:10 18.04276 -63.11264 28 ft 4 kts 60°
2026-05-03 22:10 18.04262 -63.11288 28 ft 4 kts 53°
2026-05-03 22:10 18.04244 -63.11308 28 ft 4 kts 30°
2026-05-03 22:11 18.04223 -63.11313 28 ft 3 kts 351°
2026-05-03 22:11 18.04203 -63.11310 28 ft 0 kts 351°
2026-05-03 22:14 18.04209 -63.11311 28 ft 3 kts 350°
2026-05-03 22:14 18.04234 -63.11338 28 ft 8 kts 293°
2026-05-03 22:15 18.04232 -63.11417 28 ft 13 kts 262°
2026-05-03 22:15 18.04223 -63.11461 28 ft 4 kts 255°
2026-05-03 22:15 18.04209 -63.11489 28 ft 4 kts 237°
2026-05-03 22:15 18.04191 -63.11516 28 ft 5 kts 232°
2026-05-03 22:16 18.04161 -63.11554 27 ft 9 kts 231°
2026-05-03 22:16 18.04123 -63.11603 27 ft 8 kts 231°
2026-05-03 22:16 18.04087 -63.11650 27 ft 8 kts 231°
2026-05-03 22:16 18.04064 -63.11696 27 ft 4 kts 253°
2026-05-03 22:17 18.04059 -63.11725 27 ft 2 kts 261°
2026-05-03 22:17 18.04057 -63.11736 27 ft 1 kts 261°
2026-05-03 22:17 18.04055 -63.11747 27 ft 1 kts 261°
2026-05-03 22:17 18.04054 -63.11756 27 ft 1 kts 261°
2026-05-03 22:18 18.04053 -63.11766 27 ft 1 kts 262°
2026-05-03 22:18 18.04051 -63.11775 27 ft 1 kts 262°
2026-05-03 22:18 18.04050 -63.11783 27 ft 1 kts 262°
2026-05-03 22:18 18.04048 -63.11799 27 ft 7 kts 262°
2026-05-03 22:19 18.04042 -63.11844 27 ft 0 kts 262°
2026-05-03 22:19 18.04041 -63.11853 27 ft 7 kts 262°
2026-05-03 22:19 18.04023 -63.11909 27 ft 8 kts 240°
2026-05-03 22:19 18.03988 -63.11957 27 ft 8 kts 218°
2026-05-03 22:20 18.03942 -63.11944 27 ft 8 kts 105°
2026-05-03 22:20 18.03944 -63.11922 27 ft 0 kts 78°
2026-05-03 22:20 18.03945 -63.11919 27 ft 0 kts 78°
2026-05-03 22:22 18.03946 -63.11909 27 ft 13 kts 78°
2026-05-03 22:22 18.04003 -63.11519 27 ft 94 kts 82°
2026-05-03 22:22 18.04141 -63.10592 36 ft 160 kts 81°
2026-05-03 22:22 18.04147 -63.09367 728 ft 170 kts 105°
2026-05-03 22:23 18.03469 -63.08388 1776 ft 165 kts 145°
2026-05-03 22:23 18.02390 -63.07880 2505 ft 181 kts 158°
2026-05-03 22:23 18.01127 -63.07508 3090 ft 192 kts 162°
2026-05-03 22:23 17.99829 -63.07136 3783 ft 196 kts 161°
2026-05-03 22:24 17.98458 -63.06848 4310 ft 206 kts 175°
2026-05-03 22:24 17.97004 -63.07283 4491 ft 237 kts 213°
2026-05-03 22:24 17.96023 -63.08740 4789 ft 258 kts 252°
2026-05-03 22:24 17.95904 -63.10649 5177 ft 272 kts 276°
2026-05-03 22:25 17.96343 -63.12656 5493 ft 289 kts 288°
2026-05-03 22:25 17.96998 -63.14680 6214 ft 293 kts 290°
2026-05-03 22:25 17.97686 -63.16701 6990 ft 295 kts 290°
2026-05-03 22:25 17.98369 -63.18734 7751 ft 296 kts 289°
2026-05-03 22:26 17.99043 -63.20792 8475 ft 300 kts 289°
2026-05-03 22:26 17.99708 -63.22868 9272 ft 299 kts 288°
2026-05-03 22:26 18.00360 -63.24937 10079 ft 300 kts 288°
2026-05-03 22:26 18.01020 -63.27054 10523 ft 313 kts 288°
2026-05-03 22:27 18.01706 -63.29277 10702 ft 334 kts 288°
2026-05-03 22:27 18.02440 -63.31666 10859 ft 354 kts 288°
2026-05-03 22:27 18.03215 -63.34196 10998 ft 373 kts 288°
2026-05-03 22:27 18.04025 -63.36845 11124 ft 389 kts 288°
2026-05-03 22:28 18.04863 -63.39594 11418 ft 399 kts 288°
2026-05-03 22:28 18.05796 -63.42351 11857 ft 402 kts 293°
2026-05-03 22:28 18.06953 -63.45035 12392 ft 404 kts 295°
2026-05-03 22:28 18.08167 -63.47698 12914 ft 405 kts 296°
2026-05-03 22:29 18.09403 -63.50371 13412 ft 407 kts 296°
2026-05-03 22:29 18.10639 -63.53054 13899 ft 409 kts 296°
2026-05-03 22:29 18.11872 -63.55753 14308 ft 411 kts 295°
2026-05-03 22:29 18.13104 -63.58476 14725 ft 413 kts 295°
2026-05-03 22:30 18.14332 -63.61207 15166 ft 414 kts 295°
2026-05-03 22:30 18.15557 -63.63945 15592 ft 415 kts 295°
2026-05-03 22:30 18.16787 -63.66702 15947 ft 418 kts 294°
2026-05-03 22:30 18.18020 -63.69469 16400 ft 418 kts 294°
2026-05-03 22:31 18.19256 -63.72247 16756 ft 421 kts 294°
2026-05-03 22:31 18.20501 -63.75045 17111 ft 423 kts 294°
2026-05-03 22:31 18.21745 -63.77845 17503 ft 424 kts 294°
2026-05-03 22:31 18.23001 -63.80671 17817 ft 427 kts 294°
2026-05-03 22:32 18.24262 -63.83509 18176 ft 429 kts 294°
2026-05-03 22:32 18.25527 -63.86358 18495 ft 431 kts 294°
2026-05-03 22:32 18.26796 -63.89216 18812 ft 432 kts 294°
2026-05-03 22:32 18.28068 -63.92083 19067 ft 434 kts 294°
2026-05-03 22:33 18.29348 -63.94971 19340 ft 436 kts 294°
2026-05-03 22:33 18.30632 -63.97868 19627 ft 438 kts 294°
2026-05-03 22:33 18.31922 -64.00781 19874 ft 440 kts 294°
2026-05-03 22:33 18.33218 -64.03709 20187 ft 441 kts 294°
2026-05-03 22:34 18.34517 -64.06644 20424 ft 444 kts 294°
2026-05-03 22:34 18.35821 -64.09592 20688 ft 445 kts 294°
2026-05-03 22:34 18.37113 -64.12512 20936 ft 447 kts 294°
2026-05-03 22:34 18.38448 -64.15532 21169 ft 449 kts 294°
2026-05-03 22:35 18.39637 -64.18225 21398 ft 451 kts 294°
2026-05-03 22:35 18.40963 -64.21227 21573 ft 454 kts 295°
2026-05-03 22:35 18.42296 -64.24250 21791 ft 456 kts 295°
2026-05-03 22:35 18.43633 -64.27282 21995 ft 458 kts 295°
2026-05-03 22:36 18.44979 -64.30334 22211 ft 460 kts 295°
2026-05-03 22:36 18.46327 -64.33394 22421 ft 462 kts 295°
2026-05-03 22:36 18.47680 -64.36467 22635 ft 463 kts 295°
2026-05-03 22:36 18.49036 -64.39550 22823 ft 466 kts 295°
2026-05-03 22:37 18.50399 -64.42648 23000 ft 467 kts 295°
2026-05-03 22:37 18.51767 -64.45760 23195 ft 469 kts 295°
2026-05-03 22:37 18.53140 -64.48885 23375 ft 471 kts 295°
2026-05-03 22:37 18.54520 -64.52026 23524 ft 473 kts 295°
2026-05-03 22:38 18.55901 -64.55174 23649 ft 475 kts 295°
2026-05-03 22:38 18.57291 -64.58342 23806 ft 476 kts 295°
2026-05-03 22:38 18.58683 -64.61518 23970 ft 477 kts 296°
2026-05-03 22:38 18.60076 -64.64697 24113 ft 478 kts 296°
2026-05-03 22:39 18.61472 -64.67885 24257 ft 480 kts 296°
2026-05-03 22:39 18.62870 -64.71078 24378 ft 481 kts 296°
2026-05-03 22:39 18.64273 -64.74284 24531 ft 482 kts 296°
2026-05-03 22:39 18.65678 -64.77498 24661 ft 483 kts 296°
2026-05-03 22:40 18.67085 -64.80716 24800 ft 484 kts 296°
2026-05-03 22:40 18.68495 -64.83943 24932 ft 485 kts 296°
2026-05-03 22:40 18.69908 -64.87181 25067 ft 486 kts 296°
2026-05-03 22:40 18.71321 -64.90421 25199 ft 487 kts 296°
2026-05-03 22:41 18.72737 -64.93669 25320 ft 488 kts 296°
2026-05-03 22:41 18.74156 -64.96928 25440 ft 489 kts 296°
2026-05-03 22:41 18.75577 -65.00191 25563 ft 490 kts 296°
2026-05-03 22:41 18.77001 -65.03462 25723 ft 490 kts 296°
2026-05-03 22:42 18.78425 -65.06736 25840 ft 491 kts 296°
2026-05-03 22:42 18.79850 -65.10013 25956 ft 492 kts 296°
2026-05-03 22:42 18.81278 -65.13300 26088 ft 493 kts 296°
2026-05-03 22:42 18.82706 -65.16590 26214 ft 493 kts 296°
2026-05-03 22:43 18.84135 -65.19882 26386 ft 493 kts 296°
2026-05-03 22:43 18.85560 -65.23166 26578 ft 492 kts 296°
2026-05-03 22:43 18.86982 -65.26447 26790 ft 491 kts 296°
2026-05-03 22:43 18.88383 -65.29681 26994 ft 490 kts 296°
2026-05-03 22:44 18.89797 -65.32946 27185 ft 490 kts 296°
2026-05-03 22:44 18.91213 -65.36217 27387 ft 489 kts 295°
2026-05-03 22:44 18.92623 -65.39479 27611 ft 488 kts 296°
2026-05-03 22:44 18.94050 -65.42781 27845 ft 487 kts 296°
2026-05-03 22:45 18.95435 -65.45984 28074 ft 486 kts 296°
2026-05-03 22:45 18.96837 -65.49233 28302 ft 485 kts 296°
2026-05-03 22:45 18.98235 -65.52469 28551 ft 484 kts 296°
2026-05-03 22:45 18.99631 -65.55705 28818 ft 483 kts 296°
2026-05-03 22:46 19.01018 -65.58923 29092 ft 481 kts 296°
2026-05-03 22:46 19.02405 -65.62143 29352 ft 480 kts 296°
2026-05-03 22:46 19.03787 -65.65353 29624 ft 479 kts 296°
2026-05-03 22:46 19.05166 -65.68556 29902 ft 478 kts 295°
2026-05-03 22:47 19.06540 -65.71754 30170 ft 477 kts 296°
2026-05-03 22:47 19.07912 -65.74946 30418 ft 476 kts 296°
2026-05-03 22:47 19.09277 -65.78122 30688 ft 474 kts 295°
2026-05-03 22:47 19.10637 -65.81291 30942 ft 473 kts 295°
2026-05-03 22:48 19.11995 -65.84457 31187 ft 472 kts 295°
2026-05-03 22:48 19.13349 -65.87613 31450 ft 470 kts 295°
2026-05-03 22:48 19.14698 -65.90760 31726 ft 469 kts 295°
2026-05-03 22:48 19.16040 -65.93893 31994 ft 467 kts 295°
2026-05-03 22:49 19.17378 -65.97017 32276 ft 466 kts 295°
2026-05-03 22:49 19.18710 -66.00130 32536 ft 464 kts 295°
2026-05-03 22:49 19.20041 -66.03242 32797 ft 463 kts 295°
2026-05-03 22:49 19.21366 -66.06343 33076 ft 462 kts 295°
2026-05-03 22:50 19.22687 -66.09433 33351 ft 461 kts 295°
2026-05-03 22:50 19.24003 -66.12516 33621 ft 459 kts 295°
2026-05-03 22:50 19.25316 -66.15592 33880 ft 458 kts 295°
2026-05-03 22:50 19.26626 -66.18664 34127 ft 457 kts 295°
2026-05-03 22:51 19.27933 -66.21730 34343 ft 456 kts 295°
2026-05-03 22:51 19.29235 -66.24787 34549 ft 455 kts 295°
2026-05-03 22:51 19.30535 -66.27841 34752 ft 455 kts 295°
2026-05-03 22:51 19.31815 -66.30847 34944 ft 454 kts 295°
2026-05-03 22:52 19.33125 -66.33927 35175 ft 452 kts 295°
2026-05-03 22:52 19.34411 -66.36954 35414 ft 450 kts 295°
2026-05-03 22:52 19.35678 -66.39936 35628 ft 449 kts 295°
2026-05-03 22:52 19.36976 -66.42992 35800 ft 449 kts 295°
2026-05-03 22:53 19.38239 -66.45967 35980 ft 448 kts 295°
2026-05-03 22:53 19.40817 -66.52047 36036 ft 450 kts 295°
2026-05-03 22:54 19.43356 -66.58041 36045 ft 448 kts 295°
2026-05-03 22:54 19.45895 -66.64041 36048 ft 445 kts 295°
2026-05-03 22:55 19.48421 -66.70020 36047 ft 443 kts 295°
2026-05-03 22:55 19.50936 -66.75976 36052 ft 442 kts 295°
2026-05-03 22:56 19.53444 -66.81921 36048 ft 442 kts 295°
2026-05-03 22:56 19.55953 -66.87878 36050 ft 443 kts 295°
2026-05-03 22:57 19.58466 -66.93847 36051 ft 444 kts 295°
2026-05-03 22:57 19.60983 -66.99836 36048 ft 445 kts 294°
2026-05-03 22:58 19.63506 -67.05845 36050 ft 446 kts 294°
2026-05-03 22:58 19.66033 -67.11870 36048 ft 448 kts 294°
2026-05-03 22:59 19.68562 -67.17907 36045 ft 448 kts 294°
2026-05-03 22:59 19.71096 -67.23960 36046 ft 449 kts 294°
2026-05-03 23:00 19.73626 -67.30013 36047 ft 449 kts 294°
2026-05-03 23:00 19.76154 -67.36066 36049 ft 448 kts 294°
2026-05-03 23:01 19.78678 -67.42118 36050 ft 448 kts 294°
2026-05-03 23:01 19.81196 -67.48162 36048 ft 447 kts 294°
2026-05-03 23:02 19.83710 -67.54203 36047 ft 447 kts 294°
2026-05-03 23:02 19.86204 -67.60202 36048 ft 447 kts 294°
2026-05-03 23:03 19.88710 -67.66237 36049 ft 446 kts 294°
2026-05-03 23:03 19.91211 -67.72266 36053 ft 446 kts 294°
2026-05-03 23:04 19.93705 -67.78287 36051 ft 445 kts 294°
2026-05-03 23:04 19.96198 -67.84311 36047 ft 445 kts 294°
2026-05-03 23:05 19.98692 -67.90344 36047 ft 445 kts 294°
2026-05-03 23:05 20.01182 -67.96376 36049 ft 446 kts 294°
2026-05-03 23:06 20.03672 -68.02412 36048 ft 446 kts 294°
2026-05-03 23:06 20.06159 -68.08451 36050 ft 446 kts 294°
2026-05-03 23:07 20.08649 -68.14503 36047 ft 447 kts 294°
2026-05-03 23:07 20.11140 -68.20562 36051 ft 447 kts 294°
2026-05-03 23:08 20.13210 -68.25605 36048 ft 448 kts 294°
2026-05-03 23:08 20.15702 -68.31681 36050 ft 448 kts 294°
2026-05-03 23:09 20.18194 -68.37765 36049 ft 448 kts 294°
2026-05-03 23:09 20.20683 -68.43849 36048 ft 449 kts 294°
2026-05-03 23:10 20.23175 -68.49946 36045 ft 449 kts 294°
2026-05-03 23:10 20.25705 -68.56025 36047 ft 449 kts 298°
2026-05-03 23:11 20.28798 -68.61789 36041 ft 449 kts 301°
2026-05-03 23:11 20.31971 -68.67510 36048 ft 448 kts 301°
2026-05-03 23:12 20.35126 -68.73247 36042 ft 448 kts 300°
2026-05-03 23:12 20.38260 -68.78993 36046 ft 448 kts 300°
2026-05-03 23:13 20.41383 -68.84742 36042 ft 448 kts 300°
2026-05-03 23:13 20.44505 -68.90495 36042 ft 448 kts 300°
2026-05-03 23:14 20.47621 -68.96243 36041 ft 448 kts 300°
2026-05-03 23:14 20.50734 -69.01989 36045 ft 448 kts 300°
2026-05-03 23:15 20.53846 -69.07740 36043 ft 447 kts 300°
2026-05-03 23:15 20.56955 -69.13491 36043 ft 447 kts 300°
2026-05-03 23:16 20.60041 -69.19207 36043 ft 447 kts 300°
2026-05-03 23:16 20.63144 -69.24957 36045 ft 447 kts 300°
2026-05-03 23:17 20.66245 -69.30711 36048 ft 447 kts 300°
2026-05-03 23:17 20.69343 -69.36465 36048 ft 447 kts 300°
2026-05-03 23:18 20.72437 -69.42218 36041 ft 447 kts 299°
2026-05-03 23:18 20.75532 -69.47978 36042 ft 447 kts 299°
2026-05-03 23:19 20.78626 -69.53742 36040 ft 447 kts 299°
2026-05-03 23:19 20.81712 -69.59499 36041 ft 447 kts 299°
2026-05-03 23:20 20.84801 -69.65266 36038 ft 447 kts 299°
2026-05-03 23:20 20.87886 -69.71033 36036 ft 447 kts 299°
2026-05-03 23:21 20.90968 -69.76797 36038 ft 447 kts 299°
2026-05-03 23:21 20.94054 -69.82565 36035 ft 446 kts 299°
2026-05-03 23:22 20.98656 -69.91174 36043 ft 446 kts 299°
2026-05-03 23:22 21.01732 -69.96939 36038 ft 446 kts 299°
2026-05-03 23:23 21.04826 -70.02743 36037 ft 446 kts 299°
2026-05-03 23:23 21.07875 -70.08469 36043 ft 446 kts 299°
2026-05-03 23:24 21.10944 -70.14239 36041 ft 445 kts 298°
2026-05-03 23:24 21.14007 -70.20002 36043 ft 445 kts 298°
2026-05-03 23:25 21.17069 -70.25770 36039 ft 445 kts 298°
2026-05-03 23:25 21.20127 -70.31538 36039 ft 445 kts 298°
2026-05-03 23:26 21.23181 -70.37303 36041 ft 445 kts 298°
2026-05-03 23:26 21.26229 -70.43065 36040 ft 444 kts 298°
2026-05-03 23:27 21.29277 -70.48830 36040 ft 444 kts 298°
2026-05-03 23:27 21.32320 -70.54595 36041 ft 444 kts 298°
2026-05-03 23:28 21.35362 -70.60362 36041 ft 444 kts 298°
2026-05-03 23:28 21.38400 -70.66127 36040 ft 444 kts 298°
2026-05-03 23:29 21.41431 -70.71887 36041 ft 443 kts 298°
2026-05-03 23:29 21.44460 -70.77648 36043 ft 443 kts 298°
2026-05-03 23:30 21.47487 -70.83412 36040 ft 443 kts 298°
2026-05-03 23:30 21.50491 -70.89138 36044 ft 443 kts 298°
2026-05-03 23:31 21.53511 -70.94901 36046 ft 443 kts 298°
2026-05-03 23:31 21.56527 -71.00662 36046 ft 443 kts 298°
2026-05-03 23:32 21.59498 -71.06454 36044 ft 442 kts 296°
2026-05-03 23:32 21.62338 -71.12310 36042 ft 442 kts 296°
2026-05-03 23:33 21.65162 -71.18178 36043 ft 442 kts 296°
2026-05-03 23:33 21.67994 -71.24034 36042 ft 442 kts 296°
2026-05-03 23:34 21.70834 -71.29892 36046 ft 442 kts 296°
2026-05-03 23:34 21.73675 -71.35749 36041 ft 442 kts 296°
2026-05-03 23:35 21.76512 -71.41605 36045 ft 442 kts 296°
2026-05-03 23:35 21.79350 -71.47470 36045 ft 441 kts 296°
2026-05-03 23:36 21.82162 -71.53289 36046 ft 441 kts 296°
2026-05-03 23:36 21.84990 -71.59146 36042 ft 441 kts 296°
2026-05-03 23:37 21.87810 -71.64995 36045 ft 440 kts 296°
2026-05-03 23:37 21.90627 -71.70843 36047 ft 439 kts 296°
2026-05-03 23:38 21.93435 -71.76681 36048 ft 439 kts 296°
2026-05-03 23:38 21.96241 -71.82520 36044 ft 439 kts 296°
2026-05-03 23:39 21.99040 -71.88351 36048 ft 438 kts 296°
2026-05-03 23:39 22.01837 -71.94185 36046 ft 438 kts 296°
2026-05-03 23:40 22.04632 -72.00021 36048 ft 438 kts 295°
2026-05-03 23:40 22.07420 -72.05849 36050 ft 437 kts 295°
2026-05-03 23:41 22.10206 -72.11680 36048 ft 437 kts 295°
2026-05-03 23:41 22.12989 -72.17510 36051 ft 437 kts 295°
2026-05-03 23:42 22.15769 -72.23341 36051 ft 437 kts 295°
2026-05-03 23:42 22.18544 -72.29169 36050 ft 437 kts 295°
2026-05-03 23:43 22.21321 -72.35008 36048 ft 437 kts 295°
2026-05-03 23:43 22.24094 -72.40844 36049 ft 437 kts 295°
2026-05-03 23:44 22.26864 -72.46682 36051 ft 437 kts 295°
2026-05-03 23:44 22.29630 -72.52517 36046 ft 437 kts 295°
2026-05-03 23:45 22.32376 -72.58317 36050 ft 436 kts 295°
2026-05-03 23:45 22.35136 -72.64152 36050 ft 436 kts 295°
2026-05-03 23:46 22.37890 -72.69984 36050 ft 436 kts 295°
2026-05-03 23:46 22.40643 -72.75818 36048 ft 436 kts 295°
2026-05-03 23:47 22.43392 -72.81651 36049 ft 435 kts 295°
2026-05-03 23:47 22.46134 -72.87478 36050 ft 435 kts 295°
2026-05-03 23:48 22.48878 -72.93312 36053 ft 435 kts 294°
2026-05-03 23:48 22.51615 -72.99136 36054 ft 434 kts 294°
2026-05-03 23:49 22.54349 -73.04957 36053 ft 434 kts 294°
2026-05-03 23:49 22.57078 -73.10779 36054 ft 434 kts 294°
2026-05-03 23:50 22.59342 -73.15613 36052 ft 433 kts 294°
2026-05-03 23:50 22.62524 -73.22414 36054 ft 433 kts 294°
2026-05-03 23:51 22.65240 -73.28229 36057 ft 433 kts 294°
2026-05-03 23:51 22.67951 -73.34039 36056 ft 432 kts 294°
2026-05-03 23:52 22.70659 -73.39849 36055 ft 432 kts 294°
2026-05-03 23:52 22.73361 -73.45654 36052 ft 432 kts 294°
2026-05-03 23:53 22.76061 -73.51461 36053 ft 431 kts 294°
2026-05-03 23:53 22.78757 -73.57264 36052 ft 431 kts 294°
2026-05-03 23:54 22.81431 -73.63029 36051 ft 431 kts 294°
2026-05-03 23:54 22.84136 -73.68867 36054 ft 430 kts 294°
2026-05-03 23:55 22.86804 -73.74633 36053 ft 430 kts 294°
2026-05-03 23:55 22.89484 -73.80430 36053 ft 430 kts 294°
2026-05-03 23:56 22.92161 -73.86227 36054 ft 430 kts 294°
2026-05-03 23:56 22.94835 -73.92027 36053 ft 430 kts 293°
2026-05-03 23:57 22.97506 -73.97825 36054 ft 429 kts 293°
2026-05-03 23:57 22.99724 -74.02645 36052 ft 429 kts 293°
2026-05-03 23:58 23.02408 -74.08485 36054 ft 429 kts 293°
2026-05-03 23:58 23.05052 -74.14245 36058 ft 429 kts 293°
2026-05-03 23:59 23.07711 -74.20042 36056 ft 429 kts 293°
2026-05-03 23:59 23.10366 -74.25839 36051 ft 429 kts 293°
2026-05-04 00:00 23.13021 -74.31643 36056 ft 429 kts 293°
2026-05-04 00:00 23.15671 -74.37443 36057 ft 429 kts 293°
2026-05-04 00:01 23.18319 -74.43246 36059 ft 428 kts 293°
2026-05-04 00:01 23.20963 -74.49048 36053 ft 428 kts 293°
2026-05-04 00:02 23.23602 -74.54845 36060 ft 428 kts 293°
2026-05-04 00:02 23.26242 -74.60651 36064 ft 428 kts 293°
2026-05-04 00:03 23.28876 -74.66451 36055 ft 427 kts 292°
2026-05-04 00:03 23.31504 -74.72245 36058 ft 427 kts 292°
2026-05-04 00:04 23.34131 -74.78044 36055 ft 427 kts 292°
2026-05-04 00:04 23.36757 -74.83848 36056 ft 427 kts 292°
2026-05-04 00:05 23.39357 -74.89657 36055 ft 426 kts 290°
2026-05-04 00:05 23.41302 -74.95711 36053 ft 424 kts 285°
2026-05-04 00:06 23.43129 -75.01810 36058 ft 423 kts 285°
2026-05-04 00:06 23.44965 -75.07902 36056 ft 423 kts 285°
2026-05-04 00:07 23.46811 -75.13991 36054 ft 423 kts 285°
2026-05-04 00:07 23.48647 -75.20038 36048 ft 423 kts 285°
2026-05-04 00:08 23.50496 -75.26132 36051 ft 424 kts 285°
2026-05-04 00:08 23.52342 -75.32224 36051 ft 423 kts 285°
2026-05-04 00:09 23.54186 -75.38322 36050 ft 423 kts 285°
2026-05-04 00:09 23.56025 -75.44414 36051 ft 423 kts 285°
2026-05-04 00:10 23.57863 -75.50511 36048 ft 424 kts 285°
2026-05-04 00:10 23.59700 -75.56616 36050 ft 424 kts 285°
2026-05-04 00:11 23.61536 -75.62723 36047 ft 424 kts 285°
2026-05-04 00:11 23.63367 -75.68829 36048 ft 424 kts 285°
2026-05-04 00:12 23.65200 -75.74947 36049 ft 424 kts 285°
2026-05-04 00:12 23.67029 -75.81061 36046 ft 424 kts 285°
2026-05-04 00:13 23.68857 -75.87185 36047 ft 424 kts 285°
2026-05-04 00:13 23.70681 -75.93303 36047 ft 424 kts 285°
2026-05-04 00:14 23.72506 -75.99435 36049 ft 425 kts 285°
2026-05-04 00:14 23.74326 -76.05561 36047 ft 425 kts 284°
2026-05-04 00:15 23.76146 -76.11693 36047 ft 425 kts 284°
2026-05-04 00:15 23.77962 -76.17826 36047 ft 425 kts 284°
2026-05-04 00:16 23.79777 -76.23962 36046 ft 425 kts 284°
2026-05-04 00:16 23.81590 -76.30102 36046 ft 425 kts 284°
2026-05-04 00:17 23.83399 -76.36239 36047 ft 425 kts 284°
2026-05-04 00:17 23.85205 -76.42376 36046 ft 425 kts 284°
2026-05-04 00:18 23.86998 -76.48479 36047 ft 425 kts 284°
2026-05-04 00:18 23.88802 -76.54628 36046 ft 425 kts 284°
2026-05-04 00:19 23.90601 -76.60770 36043 ft 425 kts 284°
2026-05-04 00:19 23.92398 -76.66918 36040 ft 425 kts 284°
2026-05-04 00:20 23.94196 -76.73076 36040 ft 425 kts 284°
2026-05-04 00:20 23.95987 -76.79223 36041 ft 425 kts 284°
2026-05-04 00:21 23.97778 -76.85379 36041 ft 425 kts 284°
2026-05-04 00:21 23.99566 -76.91532 36044 ft 425 kts 284°
2026-05-04 00:22 24.01352 -76.97694 36038 ft 425 kts 284°
2026-05-04 00:22 24.03135 -77.03851 36039 ft 425 kts 284°
2026-05-04 00:23 24.04915 -77.10011 36040 ft 425 kts 284°
2026-05-04 00:23 24.06681 -77.16131 36040 ft 425 kts 284°
2026-05-04 00:24 24.08456 -77.22292 36037 ft 425 kts 284°
2026-05-04 00:24 24.10227 -77.28451 36037 ft 425 kts 284°
2026-05-04 00:25 24.11996 -77.34615 36035 ft 425 kts 284°
2026-05-04 00:25 24.13765 -77.40786 36034 ft 425 kts 284°
2026-05-04 00:26 24.15531 -77.46958 36037 ft 425 kts 284°
2026-05-04 00:26 24.17293 -77.53126 36035 ft 425 kts 284°
2026-05-04 00:27 24.19054 -77.59302 36035 ft 425 kts 284°
2026-05-04 00:27 24.20811 -77.65473 36033 ft 425 kts 284°
2026-05-04 00:28 24.22555 -77.71609 36035 ft 424 kts 284°
2026-05-04 00:28 24.24316 -77.77819 36029 ft 424 kts 283°
2026-05-04 00:29 24.26067 -77.83997 36030 ft 424 kts 283°
2026-05-04 00:29 24.28451 -77.89930 36044 ft 432 kts 298°
2026-05-04 00:30 24.31854 -77.95380 36037 ft 434 kts 299°
2026-05-04 00:30 24.35256 -78.00781 36028 ft 433 kts 299°
2026-05-04 00:31 24.38639 -78.06240 36028 ft 433 kts 298°
2026-05-04 00:31 24.42003 -78.11722 36028 ft 432 kts 298°
2026-05-04 00:32 24.45350 -78.17192 36024 ft 432 kts 298°
2026-05-04 00:32 24.48694 -78.22664 36030 ft 431 kts 298°
2026-05-04 00:33 24.53699 -78.30862 36025 ft 431 kts 298°
2026-05-04 00:34 24.57030 -78.36324 36025 ft 430 kts 298°
2026-05-04 00:34 24.60358 -78.41789 36021 ft 430 kts 298°
2026-05-04 00:35 24.63681 -78.47252 36021 ft 430 kts 298°
2026-05-04 00:35 24.67000 -78.52714 36023 ft 429 kts 298°
2026-05-04 00:36 24.70310 -78.58168 36021 ft 429 kts 298°
2026-05-04 00:36 24.73621 -78.63631 36023 ft 429 kts 298°
2026-05-04 00:37 24.76926 -78.69088 36022 ft 429 kts 297°
2026-05-04 00:37 24.80233 -78.74552 36022 ft 428 kts 297°
2026-05-04 00:38 24.83536 -78.80012 36023 ft 428 kts 297°
2026-05-04 00:38 24.85190 -78.82748 35729 ft 433 kts 297°
2026-05-04 00:38 24.86860 -78.85517 35165 ft 434 kts 297°
2026-05-04 00:38 24.88532 -78.88286 34489 ft 434 kts 298°
2026-05-04 00:39 24.90205 -78.91059 33738 ft 436 kts 298°
2026-05-04 00:39 24.91862 -78.93807 32963 ft 437 kts 298°
2026-05-04 00:39 24.93565 -78.96633 32189 ft 438 kts 298°
2026-05-04 00:39 24.95232 -78.99401 31418 ft 439 kts 298°
2026-05-04 00:40 24.96921 -79.02207 30589 ft 442 kts 298°
2026-05-04 00:40 24.98625 -79.05040 29683 ft 444 kts 298°
2026-05-04 00:40 25.00336 -79.07886 28714 ft 446 kts 298°
2026-05-04 00:40 25.02050 -79.10738 27754 ft 447 kts 298°
2026-05-04 00:41 25.03768 -79.13598 26783 ft 448 kts 298°
2026-05-04 00:41 25.05491 -79.16469 25870 ft 448 kts 298°
2026-05-04 00:41 25.07201 -79.19317 25134 ft 444 kts 299°
2026-05-04 00:41 25.08896 -79.22142 24420 ft 439 kts 299°
2026-05-04 00:42 25.10568 -79.24933 23709 ft 436 kts 299°
2026-05-04 00:42 25.12231 -79.27710 22997 ft 431 kts 299°
2026-05-04 00:42 25.13851 -79.30413 22838 ft 412 kts 298°
2026-05-04 00:42 25.15401 -79.33001 22650 ft 397 kts 298°
2026-05-04 00:43 25.16893 -79.35498 22478 ft 383 kts 298°
2026-05-04 00:43 25.18334 -79.37912 22316 ft 370 kts 298°
2026-05-04 00:43 25.19728 -79.40244 22162 ft 358 kts 298°
2026-05-04 00:43 25.21084 -79.42521 21749 ft 354 kts 298°
2026-05-04 00:44 25.22426 -79.44771 21326 ft 350 kts 298°
2026-05-04 00:44 25.23763 -79.47015 20895 ft 348 kts 298°
2026-05-04 00:44 25.25092 -79.49246 20456 ft 346 kts 298°
2026-05-04 00:44 25.26409 -79.51459 20033 ft 344 kts 298°
2026-05-04 00:45 25.27722 -79.53666 19594 ft 343 kts 298°
2026-05-04 00:45 25.29032 -79.55868 19151 ft 342 kts 298°
2026-05-04 00:45 25.30338 -79.58064 18722 ft 342 kts 298°
2026-05-04 00:45 25.31640 -79.60255 18278 ft 341 kts 298°
2026-05-04 00:46 25.32940 -79.62444 17805 ft 340 kts 298°
2026-05-04 00:46 25.33797 -79.63887 17496 ft 339 kts 298°
2026-05-04 00:46 25.35087 -79.66059 17075 ft 337 kts 299°
2026-05-04 00:46 25.36367 -79.68215 16643 ft 335 kts 299°
2026-05-04 00:47 25.37640 -79.70362 16216 ft 333 kts 299°
2026-05-04 00:47 25.38908 -79.72499 15792 ft 331 kts 299°
2026-05-04 00:47 25.40213 -79.74597 15377 ft 331 kts 301°
2026-05-04 00:47 25.41550 -79.76661 14962 ft 330 kts 302°
2026-05-04 00:48 25.42889 -79.78718 14534 ft 329 kts 302°
2026-05-04 00:48 25.44221 -79.80775 14111 ft 328 kts 302°
2026-05-04 00:48 25.45545 -79.82830 13680 ft 328 kts 302°
2026-05-04 00:48 25.46861 -79.84881 13242 ft 326 kts 302°
2026-05-04 00:49 25.48171 -79.86923 12819 ft 324 kts 302°
2026-05-04 00:49 25.49474 -79.88957 12373 ft 323 kts 302°
2026-05-04 00:49 25.50771 -79.90982 11968 ft 321 kts 302°
2026-05-04 00:49 25.52058 -79.92993 11569 ft 320 kts 302°
2026-05-04 00:50 25.53336 -79.94991 11176 ft 318 kts 302°
2026-05-04 00:50 25.54601 -79.96966 10978 ft 309 kts 302°
2026-05-04 00:50 25.55827 -79.98882 10828 ft 300 kts 302°
2026-05-04 00:50 25.57016 -80.00741 10701 ft 291 kts 302°
2026-05-04 00:51 25.58165 -80.02538 10577 ft 282 kts 302°
2026-05-04 00:51 25.59288 -80.04299 10306 ft 279 kts 302°
2026-05-04 00:51 25.60383 -80.06014 10168 ft 272 kts 302°
2026-05-04 00:51 25.61460 -80.07702 10031 ft 264 kts 302°
2026-05-04 00:52 25.62516 -80.09359 9760 ft 263 kts 302°
2026-05-04 00:52 25.63569 -80.11009 9474 ft 261 kts 302°
2026-05-04 00:52 25.64614 -80.12649 9192 ft 260 kts 302°
2026-05-04 00:52 25.65627 -80.14295 8924 ft 257 kts 297°
2026-05-04 00:53 25.66421 -80.16068 8707 ft 258 kts 292°
2026-05-04 00:53 25.67164 -80.17893 8471 ft 262 kts 292°
2026-05-04 00:53 25.67924 -80.19739 8230 ft 264 kts 292°
2026-05-04 00:53 25.68692 -80.21579 7918 ft 264 kts 292°
2026-05-04 00:54 25.69484 -80.23465 7308 ft 275 kts 293°
2026-05-04 00:54 25.70308 -80.25416 6727 ft 281 kts 293°
2026-05-04 00:54 25.71066 -80.27412 6079 ft 281 kts 281°
2026-05-04 00:54 25.71238 -80.29495 5898 ft 264 kts 268°
2026-05-04 00:55 25.71156 -80.31467 5761 ft 249 kts 266°
2026-05-04 00:55 25.71036 -80.33363 5640 ft 246 kts 265°
2026-05-04 00:55 25.70921 -80.35257 5537 ft 247 kts 266°
2026-05-04 00:55 25.70816 -80.37167 5427 ft 249 kts 266°
2026-05-04 00:56 25.70718 -80.39093 5291 ft 250 kts 266°
2026-05-04 00:56 25.70624 -80.41010 5005 ft 249 kts 266°
2026-05-04 00:56 25.70531 -80.42930 4719 ft 249 kts 266°
2026-05-04 00:56 25.70419 -80.44846 4393 ft 247 kts 265°
2026-05-04 00:57 25.70276 -80.46738 4061 ft 246 kts 267°
2026-05-04 00:57 25.70639 -80.48558 3827 ft 245 kts 302°
2026-05-04 00:57 25.71849 -80.49808 3654 ft 236 kts 331°
2026-05-04 00:57 25.73390 -80.50294 3482 ft 228 kts 355°
2026-05-04 00:58 25.74939 -80.50083 3340 ft 223 kts 18°
2026-05-04 00:58 25.76294 -80.49323 3216 ft 213 kts 30°
2026-05-04 00:58 25.77436 -80.48310 3027 ft 211 kts 53°
2026-05-04 00:58 25.78007 -80.46837 2783 ft 208 kts 82°
2026-05-04 00:59 25.78086 -80.45280 2541 ft 197 kts 89°
2026-05-04 00:59 25.78132 -80.43797 2274 ft 187 kts 88°
2026-05-04 00:59 25.78177 -80.42440 2141 ft 165 kts 88°
2026-05-04 00:59 25.78218 -80.41245 1868 ft 149 kts 88°
2026-05-04 01:00 25.78257 -80.40120 1652 ft 147 kts 87°
2026-05-04 01:00 25.78299 -80.38973 1436 ft 151 kts 87°
2026-05-04 01:00 25.78347 -80.37832 1244 ft 150 kts 86°
2026-05-04 01:00 25.78397 -80.36661 1087 ft 151 kts 87°
2026-05-04 01:01 25.78445 -80.35508 1018 ft 145 kts 86°
2026-05-04 01:01 25.78457 -80.34384 767 ft 147 kts 88°
2026-05-04 01:01 25.78527 -80.33251 496 ft 147 kts 84°
2026-05-04 01:01 25.78583 -80.32142 257 ft 143 kts 85°
2026-05-04 01:02 25.78630 -80.31062 58 ft 138 kts 85°
2026-05-04 01:02 25.78671 -80.30017 28 ft 136 kts 84°
2026-05-04 01:02 25.78717 -80.28982 16 ft 125 kts 88°
2026-05-04 01:02 25.78747 -80.28247 18 ft 66 kts 87°
2026-05-04 01:03 25.78767 -80.27849 17 ft 35 kts 89°
2026-05-04 01:03 25.78815 -80.27666 17 ft 19 kts 11°
2026-05-04 01:03 25.78874 -80.27746 17 ft 13 kts 287°
2026-05-04 01:03 25.78876 -80.27846 19 ft 13 kts 267°
2026-05-04 01:04 25.78889 -80.27969 22 ft 21 kts 295°
2026-05-04 01:04 25.78967 -80.28124 20 ft 24 kts 300°
2026-05-04 01:04 25.79047 -80.28279 20 ft 23 kts 300°
2026-05-04 01:04 25.79111 -80.28405 17 ft 15 kts 302°
2026-05-04 01:05 25.79174 -80.28499 15 ft 15 kts 301°
2026-05-04 01:05 25.79223 -80.28597 15 ft 14 kts 298°
2026-05-04 01:05 25.79272 -80.28695 13 ft 16 kts 299°
2026-05-04 01:05 25.79354 -80.28794 13 ft 19 kts 348°
2026-05-04 01:06 25.79476 -80.28800 16 ft 17 kts 359°
2026-05-04 01:06 25.79591 -80.28805 19 ft 16 kts 357°
2026-05-04 01:06 25.79702 -80.28812 19 ft 16 kts 356°
2026-05-04 01:06 25.79809 -80.28816 21 ft 15 kts 358°
2026-05-04 01:07 25.79911 -80.28813 21 ft 14 kts 21°
2026-05-04 01:07 25.79937 -80.28724 21 ft 14 kts 92°
2026-05-04 01:07 25.79943 -80.28594 18 ft 21 kts 87°
2026-05-04 01:07 25.79949 -80.28412 15 ft 24 kts 88°
2026-05-04 01:08 25.79957 -80.28231 14 ft 23 kts 88°
2026-05-04 01:08 25.79964 -80.28057 13 ft 22 kts 87°
2026-05-04 01:08 25.79971 -80.27888 12 ft 22 kts 88°
2026-05-04 01:08 25.79978 -80.27724 16 ft 21 kts 86°
2026-05-04 01:09 25.79986 -80.27565 16 ft 20 kts 86°
2026-05-04 01:09 25.79991 -80.27410 18 ft 20 kts 87°
2026-05-04 01:09 25.79997 -80.27261 22 ft 19 kts 88°
2026-05-04 01:09 25.79993 -80.27117 21 ft 18 kts 110°
2026-05-04 01:10 25.79919 -80.27004 20 ft 18 kts 140°
2026-05-04 01:10 25.79818 -80.27028 21 ft 16 kts 219°
2026-05-04 01:10 25.79742 -80.27109 21 ft 15 kts 240°
2026-05-04 01:10 25.79731 -80.27209 19 ft 10 kts 269°
2026-05-04 01:11 25.79742 -80.27241 19 ft 0 kts 324°
2026-05-04 01:11 25.79746 -80.27243 19 ft 2 kts 341°
2026-05-04 01:11 25.79767 -80.27243 18 ft 3 kts 359°
2026-05-04 01:11 25.79783 -80.27244 19 ft 2 kts 359°
2026-05-04 01:12 25.79788 -80.27244 18 ft 0 kts 359°